ENT3EY LEPA-EPWA

Flight info

Callsign ENT3EY
Flight time N/A
Altitude 36000
Route ISTER DCT NIVDA DCT OMEDA DCT RAPUR DCT TORTU/N0445F360 DCT ERTEV DCT MALUG/N0442F350 DCT INGID DCT GAMLI DCT STO DCT LEDVA DCT NETIR DCT USALO DCT KOTEK DCT LOGDA
Aircraft B738/M-SDFGHIJ1RWXY/EB1

Departure

Time N/A
Airport Palma de Mallorca Airport (LEPA)

Arrival

Time 2026-05-04 17:33
Airport Warsaw Chopin Airport (EPWA)
Time Latitude Longitude Altitude Speed Heading
2026-05-04 16:36 47.74661 14.49969 36284 ft 455 kts 47°
2026-05-04 16:37 47.78771 14.57099 36766 ft 453 kts 47°
2026-05-04 16:37 47.80811 14.60644 36892 ft 449 kts 47°
2026-05-04 16:38 47.88998 14.74916 36935 ft 458 kts 47°
2026-05-04 16:39 47.97822 14.94694 36919 ft 452 kts 57°
2026-05-04 16:40 48.04365 15.10576 36930 ft 449 kts 56°
2026-05-04 16:41 48.12594 15.30429 36936 ft 449 kts 56°
2026-05-04 16:43 48.20750 15.50262 36929 ft 453 kts 56°
2026-05-04 16:43 48.25694 15.62357 36938 ft 454 kts 56°
2026-05-04 16:45 48.35545 15.86624 36932 ft 454 kts 56°
2026-05-04 16:46 48.43717 16.06860 36945 ft 451 kts 56°
2026-05-04 16:47 48.50298 16.22900 36954 ft 449 kts 56°
2026-05-04 16:48 48.56824 16.38940 36958 ft 447 kts 56°
2026-05-04 16:49 48.63279 16.54914 36953 ft 445 kts 56°
2026-05-04 16:50 48.69707 16.70912 36968 ft 444 kts 56°
2026-05-04 16:51 48.74705 16.82689 36975 ft 441 kts 50°
2026-05-04 16:52 48.82365 16.97198 36975 ft 440 kts 49°
2026-05-04 16:53 48.88068 17.08134 36966 ft 440 kts 49°
2026-05-04 16:54 48.95594 17.22769 36973 ft 439 kts 50°
2026-05-04 16:55 49.06812 17.44731 36982 ft 438 kts 50°
2026-05-04 16:56 49.16112 17.63075 36986 ft 436 kts 50°
2026-05-04 16:57 49.21672 17.74102 36992 ft 436 kts 50°
2026-05-04 16:58 49.29035 17.88774 37003 ft 435 kts 50°
2026-05-04 17:00 49.40056 18.10890 36999 ft 435 kts 50°
2026-05-04 17:01 49.49201 18.29382 36989 ft 434 kts 50°
2026-05-04 17:02 49.56465 18.44164 36985 ft 434 kts 51°
2026-05-04 17:03 49.61912 18.55302 36997 ft 433 kts 51°
2026-05-04 17:03 49.67342 18.66450 37003 ft 433 kts 51°
2026-05-04 17:04 49.75588 18.79826 37000 ft 430 kts 40°
2026-05-04 17:05 49.84365 18.92428 37000 ft 431 kts 41°
2026-05-04 17:06 49.90915 19.01984 36995 ft 432 kts 41°
2026-05-04 17:07 49.95948 19.09516 36990 ft 433 kts 44°
2026-05-04 17:07 50.01443 19.18602 36989 ft 434 kts 45°
2026-05-04 17:08 50.07631 19.28921 36983 ft 435 kts 45°
2026-05-04 17:09 50.11770 19.35786 36983 ft 435 kts 45°
2026-05-04 17:09 50.15217 19.41507 36973 ft 436 kts 45°
2026-05-04 17:10 50.19372 19.48418 36860 ft 438 kts 45°
2026-05-04 17:10 50.25400 19.58482 35929 ft 436 kts 45°
2026-05-04 17:11 50.27499 19.61996 35600 ft 436 kts 45°
2026-05-04 17:11 50.29563 19.65456 35276 ft 436 kts 45°
2026-05-04 17:11 50.33698 19.72402 34652 ft 436 kts 45°
2026-05-04 17:12 50.35762 19.75875 34340 ft 436 kts 45°
2026-05-04 17:12 50.39911 19.82873 33557 ft 441 kts 45°
2026-05-04 17:13 50.46235 19.93575 31949 ft 452 kts 45°
2026-05-04 17:14 50.53550 20.02680 30232 ft 444 kts 27°
2026-05-04 17:14 50.56258 20.05006 29601 ft 444 kts 27°
2026-05-04 17:14 50.61662 20.09627 28336 ft 446 kts 27°
2026-05-04 17:15 50.64398 20.11998 27771 ft 451 kts 27°
2026-05-04 17:15 50.69933 20.16858 27097 ft 459 kts 28°
2026-05-04 17:16 50.75514 20.21807 26220 ft 462 kts 28°
2026-05-04 17:16 50.83905 20.29279 24748 ft 459 kts 28°
2026-05-04 17:17 50.86663 20.31742 24272 ft 453 kts 28°
2026-05-04 17:17 50.94853 20.39069 22758 ft 449 kts 28°
2026-05-04 17:18 50.97576 20.41511 22220 ft 447 kts 28°
2026-05-04 17:18 51.02967 20.46357 21176 ft 442 kts 28°
2026-05-04 17:19 51.08415 20.50235 20104 ft 428 kts 20°
2026-05-04 17:19 51.14003 20.53648 18431 ft 430 kts 19°
2026-05-04 17:20 51.19595 20.57100 16615 ft 431 kts 20°
2026-05-04 17:20 51.25080 20.60560 14856 ft 417 kts 20°
2026-05-04 17:20 51.27741 20.62255 14422 ft 403 kts 20°
2026-05-04 17:21 51.32788 20.65482 13764 ft 387 kts 20°
2026-05-04 17:21 51.37742 20.68652 12896 ft 381 kts 20°
2026-05-04 17:22 51.40210 20.70234 12485 ft 382 kts 20°
2026-05-04 17:22 51.42680 20.71818 12069 ft 382 kts 20°
2026-05-04 17:23 51.50072 20.76572 10787 ft 381 kts 20°
2026-05-04 17:23 51.52525 20.78154 10379 ft 379 kts 20°
2026-05-04 17:23 51.57317 20.81253 9855 ft 359 kts 20°
2026-05-04 17:24 51.59551 20.82702 9839 ft 336 kts 20°
2026-05-04 17:24 51.65928 20.86836 8309 ft 322 kts 20°
2026-05-04 17:25 51.67991 20.88175 7806 ft 317 kts 20°
2026-05-04 17:25 51.72009 20.90788 6844 ft 309 kts 20°
2026-05-04 17:26 51.75956 20.93361 5856 ft 303 kts 20°
2026-05-04 17:26 51.81609 20.97054 5007 ft 285 kts 20°
2026-05-04 17:27 51.85263 20.99445 4547 ft 280 kts 20°
2026-05-04 17:27 51.88854 21.01801 4044 ft 276 kts 20°
2026-05-04 17:28 51.92374 21.04113 3545 ft 271 kts 20°
2026-05-04 17:29 51.97498 21.07488 3008 ft 257 kts 20°
2026-05-04 17:29 52.02414 21.08776 3012 ft 228 kts 335°
2026-05-04 17:30 52.06431 21.05639 2340 ft 206 kts 327°
2026-05-04 17:31 52.08876 21.03484 1826 ft 190 kts 327°
2026-05-04 17:31 52.12048 21.00695 1142 ft 160 kts 328°
2026-05-04 17:32 52.13973 20.98977 743 ft 157 kts 329°
2026-05-04 17:33 52.16646 20.96648 336 ft 106 kts 331°
2026-05-04 17:33 52.17115 20.96261 334 ft 45 kts 345°
2026-05-04 17:34 52.17435 20.96404 337 ft 13 kts 61°
2026-05-04 17:34 52.17479 20.96530 333 ft 13 kts 54°
2026-05-04 17:35 52.17621 20.96872 338 ft 12 kts 53°
2026-05-04 17:35 52.17727 20.96833 335 ft 4 kts 297°
2026-05-04 17:35 52.17719 20.96793 338 ft 4 kts 238°
2026-05-04 17:36 52.17709 20.96769 338 ft 1 kts 237°
2026-05-04 17:36 52.17708 20.96766 338 ft 0 kts 237°